Miscellaneous Local Product
Issued by NWS Hastings, NE

Home | Current Version | Previous Version | Text Only | Print | Product List | Glossary On
Versions: 1 2 3 4 5 6 7 8 9 10 11 12 13 14 15 16 17 18 19 20 21 22 23 24 25 26 27 28 29 30 31 32 33 34 35 36 37 38 39 40 41 42 43 44 45 46 47 48 49 50
457
AXUS43 KGID 110502
MISGRI

GID CWA HOURLY WEATHER ROUNDUP
NATIONAL WEATHER SERVICE HASTINGS NE
1100 PM CST SUN DEC 10 2017

NOTE: "FAIR" INDICATES FEW OR NO CLOUDS BELOW 12,000 FEET WITH NO
SIGNIFICANT WEATHER AND/OR OBSTRUCTIONS TO VISIBILITY.

...SOUTH CENTRAL NEBRASKA...

CITY           SKY/WX    TMP DP  RH WIND       PRES   REMARKS
GRAND ISLAND   CLEAR     38  16  40 W10       30.09F WCI  31
KEARNEY        CLOUDY    45  12  26 W8        30.12F
HASTINGS       CLEAR     40  13  33 W10       30.10F WCI  33
ORD            CLOUDY    33  14  45 NW7       30.06F WCI  27
YORK           CLOUDY    34  16  47 W8        30.07F WCI  27
AURORA         CLOUDY    35  14  42 W12       30.07F WCI  27
LEXINGTON      CLOUDY    29  13  49 NW6       30.14S WCI  23
HOLDREGE       CLOUDY    40  13  33 W12       30.13F WCI  33
HEBRON         CLEAR     40  15  35 W7        30.10F

...NEBRASKA PANHANDLE...

CITY           SKY/WX    TMP DP  RH WIND       PRES   REMARKS
CHADRON        CLOUDY    39  14  36 NW3       30.22R
ALLIANCE       CLOUDY    37  13  37 W13       30.22R WCI  29
SCOTTSBLUFF    CLOUDY    32   9  38 NW8       30.26S WCI  25
SIDNEY         CLOUDY    36   7  29 NW13      30.26F WCI  27

...WESTERN AND NORTH CENTRAL NEBRASKA...

CITY           SKY/WX    TMP DP  RH WIND       PRES   REMARKS
VALENTINE      CLEAR     35  18  49 W7        30.08F WCI  29
AINSWORTH      CLOUDY    41  18  39 W13       30.07F
ONEILL         CLOUDY    45  20  36 W9        30.03F
BROKEN BOW     CLEAR     47  11  23 W14       30.09F
IMPERIAL       CLOUDY    39   6  25 W13       30.22S WCI  31
NORTH PLATTE   CLOUDY    25  14  63 NW8       30.17S WCI  16
MCCOOK         CLOUDY    32  10  40 W12       30.20R WCI  23

...EASTERN NEBRASKA...

CITY           SKY/WX    TMP DP  RH WIND       PRES   REMARKS
NORFOLK        CLOUDY    41  20  43 W9        30.01F
SO SIOUX CITY  PTCLDY    30  22  72 CALM      30.01F
TEKAMAH        CLOUDY    26  15  63 S7        30.03F WCI  18
COLUMBUS       CLOUDY    29  19  66 W7        30.04F WCI  22
ALBION         CLOUDY    40  16  37 NW10      30.04F WCI  34
OMAHA EPPLEY   CLOUDY    31  22  69 SE6       30.04F WCI  25
OFFUTT AFB     CLOUDY    26  20  80 CALM      30.04F
MILLARD        CLOUDY    30  24  79 CALM      30.05F
LINCOLN        CLOUDY    27  17  66 S3        30.07F
NEBRASKA CITY  CLOUDY    42  21  44 SW6       30.05F
BEATRICE       CLOUDY    30  19  62 CALM      30.08F
FALLS CITY     CLOUDY    33  20  58 S7        30.09F WCI  27

...NORTHERN KANSAS...

CITY           SKY/WX    TMP DP  RH WIND       PRES   REMARKS
GOODLAND       CLEAR     31   2  29 W10       30.27R WCI  22
HILL CITY      CLEAR     38  11  32 W12       30.21R WCI  30
NORTON         CLEAR     36   3  25 SW7       30.17F WCI  30
PHILLIPSBURG   CLEAR     36  10  35 W8        30.17S WCI  29
SMITH CENTER   CLEAR     32  12  43 W5        30.16F WCI  27
HAYS           CLEAR     40  12  32 NW6       30.20S
RUSSELL        CLEAR     36  15  42 SW12      30.17F WCI  28
CONCORDIA      CLEAR     44  15  31 W12       30.12F
SALINA         CLEAR     41  18  39 SW7       30.16F
TOPEKA         CLEAR     32  25  75 CALM      30.13S



USA.gov is the U.S. government's official web portal to all federal, state and local government web resources and services.